CAPE
139 129 519 959 826 851 935 1028 1058 1111 1200 1207 1045 1002 820 773 848 717 643 477 672 1111 1045 993 986 778 652 658 629 632 636 544 440 351 301 244 240 318 296 242 236 229 162
0 0 0 3 30 60 36 154 359 389 453 568 650 625 672 725 737 817 788 437 462 807 880 933 850 677 810 769 670 590 645 603 520 407 328 279 218 247 258 202 202 212 155
0 0 0 0 0 0 0 0 0 17 95 121 130 154 179 239 221 133 32 0 6 356 656 755 718 637 705 717 674 658 583 629 572 512 397 291 227 190 200 134 177 179 149
0 0 0 0 0 0 0 0 0 0 0 0 0 0 5 46 90 79 0 0 122 323 252 385 571 514 381 599 738 622 565 503 575 581 496 352 259 196 157 106 125 151 161
0 0 0 0 0 0 0 0 0 0 0 0 0 0 0 4 53 83 2 0 47 87 349 239 241 295 306 347 406 558 577 541 566 587 558 457 324 244 191 163 135 124 137
0 0 0 0 0 0 0 0 0 0 0 0 0 0 0 0 47 11 40 0 0 10 30 51 27 12 5 260 347 597 654 836 638 557 518 509 444 322 243 204 183 150 124
0 0 0 0 0 0 0 0 0 0 0 0 0 0 0 0 0 37 257 336 249 228 83 82 0 0 0 2 281 320 637 1151 974 768 600 434 405 385 291 240 219 187 143
0 0 0 0 0 0 0 0 0 1 0 0 0 0 0 0 0 0 0 218 215 33 154 149 127 0 0 3 52 52 290 528 597 898 545 438 360 267 313 264 246 214 158
0 0 0 0 0 0 0 0 0 0 2 0 0 0 0 0 0 0 0 0 0 0 53 83 88 31 0 0 1 45 78 86 220 318 803 461 375 290 287 264 250 228 210
0 0 0 0 0 0 0 0 0 0 0 2 0 0 0 0 1 0 0 0 0 0 0 13 83 62 0 0 12 84 53 47 109 165 410 368 349 378 299 297 253 277 253
0 0 0 0 0 0 0 0 0 0 0 0 1 3 1 0 0 3 0 0 0 0 0 0 0 0 96 43 87 115 175 129 128 72 63 87 245 394 410 388 272 276 275
0 0 0 1 1 1 0 0 0 1 1 0 0 0 1 2 1 2 2 0 1 0 0 0 0 0 0 0 155 49 3 12 58 72 32 16 117 238 445 417 362 277 268
1 0 0 0 0 2 0 0 1 0 1 0 0 1 1 1 1 1 2 2 2 0 0 1 0 0 0 0 1 11 0 2 0 7 69 33 74 168 321 398 479 366 287
0 0 0 2 0 0 0 0 0 0 0 1 0 0 1 1 1 3 4 2 0 2 2 0 0 0 0 0 1 0 0 0 0 0 0 6 43 77 173 229 339 384 325
0 0 0 0 0 0 2 0 1 1 0 1 1 1 1 2 1 2 2 3 4 4 3 1 1 0 0 0 0 0 0 23 4 11 0 0 27 52 67 133 208 229 227
0 0 0 0 0 0 0 3 1 2 2 1 1 1 1 1 1 1 1 2 2 3 6 3 1 0 0 3 0 0 0 0 1 6 0 0 0 2 7 38 68 112 103
0 0 0 0 0 0 0 1 1 1 0 2 0 0 1 1 1 0 1 1 2 2 4 3 1 1 0 0 0 0 0 0 0 0 0 0 0 0 0 0 15 39 31
0 0 0 0 0 0 0 0 0 0 0 0 0 0 1 1 1 1 2 1 1 0 3 5 1 1 2 0 0 0 0 0 0 0 0 0 0 0 0 0 0 0 0
0 0 0 0 0 0 0 0 0 0 0 0 1 0 0 1 1 1 1 1 1 0 0 2 2 0 1 0 1 0 0 0 0 0 0 0 0 0 3 1 0 0 0
0 0 0 0 0 0 0 0 0 0 0 0 0 0 0 0 0 0 0 0 0 0 1 1 1 2 1 0 1 3 0 0 0 0 0 0 0 0 0 0 0 3 4
0 0 0 0 0 0 1 0 0 0 0 0 0 0 0 0 0 1 0 0 0 1 1 0 1 1 2 3 4 2 3 1 0 0 1 0 0 0 0 0 2 1 0
0 0 0 0 0 0 1 3 0 0 0 0 0 0 0 0 0 0 1 0 1 0 0 1 1 1 1 1 1 1 3 3 0 0 0 0 0 0 0 0 0 0 0
0 0 0 0 0 0 0 1 2 0 0 0 0 0 0 0 0 0 0 0 0 0 0 0 0 0 1 0 1 1 3 3 1 0 0 0 0 0 0 0 0 0 0
0 0 0 0 0 0 0 0 0 0 0 0 0 0 0 0 0 0 0 0 0 0 0 1 0 0 0 0 1 1 1 0 0 0 0 1 0 0 0 0 2 0 0
0 0 0 0 0 0 0 0 0 0 0 0 0 0 0 0 0 0 0 0 0 0 0 0 0 0 0 2 2 0 2 2 2 0 0 0 0 0 0 0 0 0 0
0 0 0 0 0 0 0 0 0 0 0 0 0 0 0 0 0 0 0 0 0 0 0 0 0 0 0 0 0 0 0 2 1 0 0 0 0 0 0 0 0 0 0
CIN
-325 -311 -173 -86 -89 -82 -58 -56 -53 -30 -19 -10 -18 -42 -46 -61 -66 -106 -118 -103 -72 -56 -33 -47 -74 -82 -94 -82 -74 -53 -40 -31 -44 -54 -67 -75 -59 -40 -36 -25 -22 -17 -28
-0 -0 -0 -103 -229 -230 -316 -223 -124 -82 -72 -57 -49 -13 -3 -4 -3 -15 -46 -89 -81 -78 -40 -28 -56 -64 -77 -77 -73 -71 -51 -41 -36 -49 -59 -66 -76 -55 -45 -46 -36 -23 -24
-0 -0 -0 -0 -0 -0 -0 -0 -0 -244 -158 -122 -112 -82 -55 -29 -26 -59 -68 -0 -6 -61 -51 -46 -42 -55 -81 -83 -73 -58 -58 -50 -38 -44 -47 -64 -71 -70 -56 -54 -45 -32 -29
-0 -0 -0 -0 -0 -0 -0 -0 -0 -0 -0 -0 -0 -0 -48 -109 -104 -140 -0 -0 -61 -39 -56 -70 -63 -37 -42 -51 -68 -63 -56 -53 -51 -30 -34 -61 -67 -82 -89 -84 -57 -41 -26
-0 -0 -0 -0 -0 -0 -0 -0 -0 -0 -0 -0 -0 -0 -0 -132 -110 -131 -94 -0 -149 -34 -29 -26 -44 -44 -36 -24 -21 -37 -47 -47 -43 -35 -29 -38 -67 -61 -87 -98 -85 -71 -51
-0 -0 -0 -0 -0 -0 -0 -0 -0 -0 -0 -0 -0 -0 -0 -0 -144 -44 -155 -0 -7 -110 -200 -151 -82 -2 -18 -6 -40 -35 -9 -26 -57 -40 -28 -27 -39 -52 -53 -76 -88 -88 -76
-0 -0 -0 -0 -0 -0 -0 -0 -0 -0 -0 -0 -0 -0 -0 -0 -0 -145 -66 -48 -57 -52 -67 -84 -0 -0 -0 -165 -50 -36 -15 -2 -4 -48 -28 -24 -29 -41 -52 -56 -66 -73 -78
-0 -0 -0 -0 -0 -0 -0 -0 -0 -0 -0 -0 -0 -0 -0 -0 -0 -0 -0 -67 -32 -54 -61 -64 -111 -0 -0 -263 -207 -152 -31 -20 -9 -3 -71 -39 -32 -38 -47 -56 -56 -59 -64
-0 -0 -0 -0 -0 -0 -0 -0 -0 -0 -0 -0 -0 -0 -0 -0 -0 -0 -0 -0 -0 -0 -94 -85 -87 -133 -0 -0 -71 -115 -93 -57 -23 -22 -21 -48 -37 -41 -45 -52 -55 -59 -55
-0 -0 -0 -0 -0 -0 -0 -0 -0 -0 -0 -0 -0 -0 -0 -0 -0 -0 -0 -0 -0 -0 -0 -19 -57 -67 -0 -0 -266 -63 -122 -124 -65 -24 -16 -27 -20 -30 -39 -64 -59 -61 -56
-0 -0 -0 -0 -0 -0 -0 -0 -0 -1 -0 -1 -0 -1 -1 -0 -0 -0 -0 -0 -0 -0 -0 -0 -0 -0 -42 -57 -41 -49 -46 -74 -96 -77 -63 -102 -28 -22 -35 -49 -66 -59 -66
-0 -0 -0 -1 -2 -1 -0 -0 -0 -0 -0 -1 -0 -0 -0 -0 -0 -0 -1 -0 -1 -0 -0 -0 -0 -0 -0 -0 -18 -104 -102 -92 -129 -80 -68 -75 -59 -13 -48 -49 -59 -56 -66
-0 -0 -0 -0 -0 -1 -2 -1 -0 -0 -0 -0 -0 -0 -0 -0 -0 -0 -0 -0 -0 -0 -0 -1 -0 -0 -0 -0 -1 -8 -0 -58 -0 -32 -40 -50 -28 -13 -34 -48 -53 -51 -66
-0 -0 -0 -0 -0 -0 -0 -0 -0 -0 -0 -0 -0 -0 -0 -0 -0 -0 -0 -0 -0 -0 -0 -0 -0 -0 -2 -0 -3 -0 -0 -0 -0 -0 -0 -113 -82 -52 -36 -54 -70 -63 -81
-0 -0 -0 -0 -0 -0 -0 -0 -0 -0 -0 -0 -0 -0 -0 -0 -0 -0 -0 -0 -0 -0 -0 -0 -0 -0 -0 -0 -1 -0 -0 -74 -4 -73 -15 -0 -136 -100 -79 -64 -61 -67 -76
-0 -1 -0 -0 -0 -0 -0 -0 -0 -0 -0 -0 -0 -0 -0 -0 -0 -0 -0 -0 -0 -0 -0 -0 -0 -0 -0 -0 -0 -0 -0 -0 -40 -71 -0 -0 -0 -57 -74 -102 -100 -76 -66
-0 -0 -0 -0 -0 -0 -0 -0 -0 -0 -0 -0 -0 -0 -0 -0 -0 -0 -0 -0 -0 -0 -0 -0 -0 -0 -0 -0 -0 -0 -0 -0 -0 -0 -0 -0 -0 -0 -0 -0 -132 -112 -114
-0 -0 -0 -0 -0 -0 -0 -0 -0 -0 -0 -0 -0 -0 -0 -0 -0 -0 -0 -0 -0 -0 -0 -0 -0 -0 -0 -0 -0 -0 -0 -0 -0 -0 -0 -0 -0 -0 -0 -0 -0 -0 -0
-0 -0 -0 -0 -0 -0 -0 -0 -0 -0 -0 -0 -0 -0 -0 -0 -0 -0 -0 -0 -0 -0 -0 -0 -0 -0 -0 -0 -0 -0 -0 -0 -0 -0 -0 -0 -0 -0 -0 -0 -0 -0 -0
-0 -0 -0 -0 -0 -0 -0 -0 -0 -0 -0 -0 -0 -0 -0 -0 -0 -0 -0 -0 -0 -0 -0 -0 -0 -0 -0 -0 -0 -0 -0 -0 -0 -0 -0 -0 -0 -0 -0 -0 -0 -0 -0
-0 -0 -0 -0 -0 -0 -0 -0 -0 -0 -0 -0 -0 -0 -0 -0 -1 -1 -0 -0 -0 -0 -0 -0 -0 -0 -0 -0 -0 -0 -0 -0 -0 -0 -0 -0 -0 -0 -0 -0 -0 -0 -0
-0 -0 -0 -0 -0 -0 -0 -0 -0 -0 -0 -0 -0 -0 -0 -0 -0 -0 -0 -0 -0 -0 -0 -0 -0 -0 -0 -0 -0 -0 -0 -0 -0 -0 -0 -0 -0 -0 -0 -0 -0 -0 -0
-0 -0 -0 -0 -0 -0 -0 -0 -0 -0 -0 -0 -0 -0 -0 -0 -0 -0 -0 -0 -0 -0 -0 -0 -0 -0 -0 -0 -0 -0 -0 -0 -0 -0 -0 -0 -0 -0 -0 -0 -0 -0 -0
-0 -0 -0 -0 -0 -0 -0 -0 -0 -0 -0 -0 -0 -0 -0 -0 -0 -0 -0 -0 -0 -0 -1 -2 -0 -1 -0 -0 -0 -0 -0 -0 -0 -0 -0 -0 -0 -0 -0 -0 -0 -0 -0
-0 -0 -0 -0 -0 -0 -0 -0 -0 -0 -0 -0 -0 -0 -0 -0 -0 -0 -0 -0 -0 -0 -0 -0 -0 -0 -0 -0 -0 -0 -0 -0 -0 -0 -0 -0 -0 -0 -0 -0 -0 -0 -0
-0 -0 -0 -0 -0 -0 -1 -0 -0 -0 -0 -0 -0 -0 -1 -0 -0 -0 -0 -0 -0 -0 -0 -0 -0 -0 -0 -0 -0 -0 -0 -0 -0 -0 -0 -0 -0 -2 -0 -0 -0 -0 -0
Wind_Speed
21 23 23 24 26 26 27 27 29 30 28 25 25 28 33 31 27 26 26 21 15 16 15 12 10 9 9 10 9 9 10 11 10 9 11 11 11 11 12 12 13 13 10
24 24 26 27 27 27 27 28 29 31 32 32 32 31 28 28 30 38 34 32 18 16 16 14 13 12 11 12 12 11 11 11 11 11 11 12 12 11 12 11 12 13 14
28 28 29 30 29 30 30 31 31 30 32 33 33 32 32 32 33 32 39 41 35 20 16 16 16 15 14 14 14 13 13 12 13 12 12 12 13 13 13 12 12 13 13
30 29 28 29 31 31 31 32 33 34 34 33 34 35 33 32 33 33 35 31 27 25 34 21 20 19 18 16 16 15 15 15 14 15 15 14 14 15 15 14 13 13 14
30 29 30 31 32 32 32 34 35 35 36 36 36 36 35 34 32 31 31 26 22 20 27 29 34 36 28 19 17 18 18 18 17 17 18 18 17 16 16 16 15 14 14
31 31 31 32 32 32 33 34 35 35 35 37 39 37 36 34 31 30 29 29 27 26 27 24 33 34 30 27 15 17 23 20 19 20 20 22 20 19 18 17 17 16 15
30 30 31 32 33 32 33 33 34 36 33 36 35 37 35 34 31 30 28 31 31 27 27 30 32 36 48 18 17 17 20 22 24 23 22 27 25 23 21 20 19 18 17
29 30 31 32 32 33 33 33 34 34 32 34 34 36 38 36 30 30 31 31 31 33 33 32 29 32 28 22 19 20 21 21 22 28 27 27 28 26 23 21 21 20 19
30 31 32 32 33 33 33 34 33 33 34 32 33 31 37 38 41 33 36 33 34 35 33 32 31 27 24 25 24 22 22 23 22 27 43 29 28 28 26 24 22 22 21
33 34 35 34 34 34 35 35 35 35 35 35 33 31 33 35 38 44 34 40 37 37 35 33 33 30 27 26 27 22 25 23 22 23 43 34 30 31 30 26 23 23 22
32 34 34 34 34 34 34 35 35 35 34 34 34 34 33 34 35 38 48 41 42 38 40 38 35 34 30 29 30 31 27 25 26 23 38 50 41 32 33 28 25 24 24
31 33 33 33 34 33 33 34 34 33 32 32 32 32 32 33 35 37 43 47 49 42 38 39 37 35 34 34 36 38 41 38 25 28 26 39 59 53 39 28 27 26 25
31 33 33 33 33 33 32 31 30 31 32 31 32 33 33 33 34 36 40 45 45 44 39 34 34 36 36 36 35 34 38 46 46 30 24 25 30 56 44 31 28 28 26
30 31 32 31 31 32 31 29 29 30 29 28 30 30 31 33 33 34 35 39 47 42 42 37 39 34 33 35 38 41 39 38 44 45 37 29 26 51 43 32 29 28 27
28 30 30 30 30 30 30 28 29 28 26 26 27 29 29 30 31 31 30 32 36 41 43 33 34 34 40 40 38 36 36 35 32 39 41 38 34 35 41 34 32 31 29
28 28 28 29 28 29 30 27 26 26 24 24 25 26 25 26 26 27 30 30 29 32 34 32 40 41 39 37 35 38 36 34 29 31 33 35 41 38 36 31 30 29 29
28 28 27 28 27 28 29 29 27 26 25 23 24 23 24 25 25 26 28 28 29 30 28 36 36 35 36 36 37 36 35 34 34 33 32 31 35 38 42 42 37 34 33
27 27 26 27 26 26 27 29 27 26 25 23 22 23 23 24 25 27 27 29 29 29 31 31 33 33 33 34 34 34 34 33 34 34 33 32 33 36 39 41 43 41 39
26 26 26 26 25 25 26 28 26 25 23 23 22 24 23 25 26 27 27 28 29 29 29 29 30 31 32 33 33 32 32 34 33 32 31 33 33 33 37 41 42 41 41
26 25 25 24 25 25 26 26 25 25 26 23 23 23 27 27 27 27 27 29 29 29 29 29 30 29 30 32 31 34 35 34 35 32 35 34 35 35 37 38 41 42 43
24 23 24 24 24 24 26 24 24 25 26 25 24 25 26 27 27 28 27 29 30 29 30 30 29 29 30 32 34 35 35 37 33 31 38 38 37 36 36 37 36 39 42
22 22 22 23 24 23 25 24 24 24 26 26 26 26 27 29 29 28 28 28 30 30 30 30 30 31 31 33 34 33 34 36 34 34 38 38 35 39 38 39 41 42 41
21 21 20 22 23 24 23 24 24 24 25 26 27 28 28 29 30 29 28 29 29 30 31 30 31 31 32 34 35 34 34 34 35 35 37 36 37 39 42 41 39 38 40
19 19 20 21 22 24 23 23 23 24 25 25 27 28 28 29 30 30 29 29 30 30 31 30 31 31 32 33 34 33 34 33 33 29 35 35 38 42 42 39 35 41 40
18 19 20 21 22 23 24 24 23 24 25 26 26 26 28 29 30 31 30 30 30 31 30 31 31 32 32 33 35 34 35 35 34 31 34 38 38 43 36 34 36 42 41
17 19 20 21 21 22 24 25 25 24 25 25 26 26 28 28 30 31 31 31 31 32 32 32 32 33 33 34 35 34 35 36 36 32 37 39 37 39 38 31 42 41 40
Wind_Direction
318 321 323 321 319 318 313 311 308 304 303 298 289 287 285 284 282 283 284 280 245 222 222 232 233 231 222 215 216 213 201 197 202 204 193 189 186 179 172 165 164 163 169
319 319 319 318 316 315 315 313 310 308 305 304 302 299 295 290 292 286 284 280 252 235 235 240 249 245 239 232 228 224 218 212 212 216 212 204 201 196 192 184 177 172 169
319 316 313 313 314 314 313 311 309 307 306 305 304 304 302 300 301 305 279 293 277 266 248 250 245 246 247 241 241 238 229 227 230 229 229 223 209 208 205 205 195 185 181
322 319 315 313 313 313 314 311 309 306 306 306 304 302 303 304 303 300 297 302 298 303 280 274 263 253 250 245 246 241 239 236 231 241 240 238 225 216 212 213 211 203 194
325 321 316 315 314 311 311 309 308 309 304 303 303 303 303 304 307 305 302 301 289 274 288 300 286 278 266 258 257 256 251 248 246 244 247 248 240 230 225 218 217 216 211
328 323 319 317 317 313 310 310 307 308 305 303 300 300 302 303 307 306 304 300 299 294 286 286 318 288 286 269 270 262 263 252 241 245 247 252 249 244 237 230 223 221 218
333 329 324 320 317 316 313 312 308 306 305 309 302 301 302 303 304 307 308 305 302 298 294 292 290 283 278 291 271 250 239 248 258 250 248 256 253 250 244 241 236 233 227
339 334 329 323 321 315 313 312 311 307 305 309 303 300 296 299 305 308 310 310 307 306 303 299 293 289 285 280 280 251 251 236 241 255 253 254 254 252 246 237 238 238 234
340 334 329 324 319 315 313 311 309 309 304 305 306 299 295 293 299 302 304 307 309 306 305 304 301 296 289 280 280 266 248 249 247 254 255 254 253 252 250 244 234 241 238
333 330 325 321 317 314 311 309 307 303 301 299 301 301 299 297 296 293 300 301 303 303 306 308 302 301 297 291 282 264 264 251 239 240 257 257 256 255 252 246 236 230 229
336 333 329 325 321 318 314 310 307 305 303 299 297 297 297 297 294 295 292 297 301 302 299 300 302 300 297 292 286 281 275 261 233 237 263 256 259 254 254 247 236 230 225
338 338 336 333 327 322 319 314 309 307 306 303 301 300 299 297 297 297 296 295 293 299 303 299 295 295 295 293 286 281 278 276 255 253 241 260 248 253 257 242 236 226 228
340 338 338 337 335 330 329 324 316 311 311 305 302 298 298 298 299 299 299 296 296 296 300 303 298 292 289 289 290 290 292 274 268 268 251 238 247 251 254 244 229 224 228
343 341 339 339 338 337 336 335 325 316 317 312 307 303 300 300 301 300 301 299 295 296 295 296 299 293 291 290 287 285 286 294 272 264 267 264 251 250 255 245 237 230 235
349 348 348 343 341 340 342 342 335 328 324 320 317 311 307 304 304 307 309 309 303 299 294 298 298 298 290 285 284 286 287 287 292 264 266 267 267 264 258 253 247 246 242
352 352 354 352 347 346 344 349 348 339 338 336 326 318 312 311 315 316 312 313 312 309 302 305 294 293 293 287 288 284 286 288 301 284 279 274 268 267 264 258 253 250 250
352 359 0 356 355 352 350 356 352 346 348 339 333 328 324 327 322 320 325 323 320 319 319 307 299 297 298 294 290 287 287 286 285 293 292 287 278 270 265 263 263 261 260
356 0 0 356 355 353 353 354 356 352 349 341 340 337 334 329 326 329 331 328 324 327 320 322 307 299 302 303 294 291 289 289 290 290 291 289 285 279 272 267 266 267 266
355 359 357 355 351 351 353 354 359 353 343 340 337 337 329 334 334 338 341 338 332 331 330 326 321 305 304 308 302 299 296 295 292 292 292 290 290 288 280 273 271 270 269
357 1 360 357 354 352 351 353 4 3 354 341 339 339 345 340 338 339 342 345 343 342 340 329 324 317 312 315 310 305 299 302 292 291 293 292 291 288 287 284 278 275 274
1 6 2 357 356 356 354 3 9 10 360 354 347 346 347 347 347 348 346 346 347 344 345 342 337 328 320 314 315 307 304 303 296 302 295 294 290 290 290 290 288 284 279
8 7 2 358 357 357 357 2 10 15 13 359 350 348 353 353 353 354 355 353 353 347 344 344 342 337 332 328 323 318 310 304 296 304 299 293 297 291 291 291 289 286 287
13 7 0 356 359 359 357 0 6 9 8 6 2 358 358 357 358 355 356 358 357 354 355 352 346 342 336 332 330 324 318 316 302 303 308 295 299 295 295 291 290 293 290
17 7 359 356 357 360 359 359 3 9 7 3 359 1 0 360 1 360 1 0 0 357 356 356 355 350 346 340 338 333 327 322 316 314 319 301 306 300 296 292 294 297 294
18 13 8 360 359 356 2 1 1 7 5 2 358 356 3 1 359 359 0 359 358 356 351 352 351 349 347 346 344 341 333 329 321 315 324 311 308 305 304 299 301 300 295
32 20 12 2 357 354 360 2 0 360 0 356 355 354 357 358 358 359 359 356 354 349 346 345 344 342 342 341 340 341 340 335 329 322 325 317 312 313 298 302 307 307 304